Regional Weather Roundup
Issued by NWS

Home | Current Version | Previous Version | Graphics & Text | Print | Product List | Glossary On
Versions: 1 2 3 4 5 6 7 8 9 10 11 12 13 14 15 16 17 18 19 20 21 22 23 24 25 26 27 28 29 30 31 32 33 34 35 36 37 38 39 40 41 42 43 44 45 46 47 48 49 50
000
ASUS43 KMKX 201021
RWRWI

WISCONSIN REGIONAL WEATHER ROUNDUP
NATIONAL WEATHER SERVICE MILWAUKEE/SULLIVAN WI
500 AM CDT SUN MAY 20 2018

NOTE: "FAIR" INDICATES FEW OR NO CLOUDS BELOW 12,000 FEET WITH NO
SIGNIFICANT WEATHER AND/OR OBSTRUCTIONS TO VISIBILITY.

WIZ001-002-006>008-014>016-023>028-201100-
NORTHWEST WISCONSIN

CITY           SKY/WX    TMP DP  RH WIND       PRES   REMARKS
SUPERIOR ARPT  FOG       29  29 100 N5        30.26S VSB 1/2 WCI  24
ASHLAND        FAIR      33  31  92 CALM      30.25S FOG
HAYWARD        FAIR      34  31  88 CALM      30.24R
SIREN          FAIR      37  35  92 CALM      30.23R
CUMBERLAND     FAIR      37  34  87 NE6       30.22R WCI  33
RICE LAKE      FAIR      39  36  89 CALM      30.23S
CHETEK         FAIR      40  36  84 NE7       30.22S
LADYSMITH      FAIR      37  34  89 NE7       30.23S WCI  31
EAU CLAIRE     CLOUDY    45  37  73 NE9       30.17R
MENOMONIE      CLOUDY    45  36  69 NE10      30.20R
NEW RICHMOND   FAIR      41  34  76 NE9       30.21S
OSCEOLA        FAIR      38  36  91 CALM      30.25R
$$

WIZ003>005-009-010-017-018-201100-
NORTH CENTRAL WISCONSIN

CITY           SKY/WX    TMP DP  RH WIND       PRES   REMARKS
MANITOWISH WTR FAIR      34  34 100 NE3       30.21R
ARBOR VITAE    FAIR      39  35  86 CALM      30.21R
WOODRUFF       FAIR      39  35  86 CALM      30.21R
RHINELANDER    FAIR      40  34  79 NE6       30.20R
EAGLE RIVER    FAIR      35  33  93 NE5       30.20R WCI  31
LAND O LAKES   FAIR      35  34  94 N7        30.22S WCI  29
PHILLIPS       FAIR      34  34 100 CALM      30.21R
TOMAHAWK       FAIR      38  34  87 CALM      30.21R
MEDFORD        MOCLDY    38  35  89 NE6       30.19R WCI  33
MERRILL        FAIR      37  36  95 CALM      30.20R
$$

WIZ029-030-035-036-043>047-201100-
CENTRAL WISCONSIN

CITY           SKY/WX    TMP DP  RH WIND       PRES   REMARKS
WAUSAU         CLOUDY    43  36  76 NE6       30.17R
MOSINEE        CLOUDY    43  36  75 N9        30.18F
MARSHFIELD     CLOUDY    45  38  76 NE12      30.15S
STEVENS POINT  NOT AVBL
WAUPACA        CLOUDY    48  42  79 N5        30.17S
WAUTOMA        CLOUDY    46  43  87 NE9       30.16R
WISC RAPIDS    CLOUDY    48  40  73 NE7       30.16R
CAMP DOUGLAS   LGT RAIN  46  46 100 E5        30.14S
$$

WIZ011>013-019>022-031-037>040-048>050-201100-
NORTHEAST WISCONSIN

CITY           SKY/WX    TMP DP  RH WIND       PRES   REMARKS
ANTIGO         FAIR      36  34  94 N5        30.19R WCI  32
SHAWANO        CLOUDY    46  38  74 NE10      30.19R
OCONTO         CLOUDY    43  36  77 N5        30.19R
STURGEON BAY   CLOUDY    41  37  86 N16G24    30.17S
GREEN BAY      CLOUDY    46  39  76 N13       30.17R
MANITOWOC      LGT RAIN  44  40  85 N7        30.16S
APPLETON       CLOUDY    45  41  87 N8        30.16R
CLINTONVILLE   CLOUDY    45  36  69 NE12      30.18S
OSHKOSH        LGT RAIN  47  44  90 N9        30.15R
$$

WIZ032>034-041-042-053>061-201100-
SOUTHWEST WISCONSIN

CITY           SKY/WX    TMP DP  RH WIND       PRES   REMARKS
LA CROSSE      LGT RAIN  49  48  97 N6        30.13R
SPARTA         RAIN      46  45  93 NE6       30.12F
VIROQUA        CLOUDY    48  48  99 NE13      30.10S
BOSCOBEL       CLOUDY    56  50  80 NE6       30.08R
PRAIRIE DU CHI CLOUDY    54  48  80 NE7       30.07R
PLATTEVILLE    CLOUDY    57  57 100 NE15      30.06R
$$

WIZ056-057-062-063-064-067-068-201100-
SOUTH CENTRAL WISCONSIN

CITY           SKY/WX    TMP DP  RH WIND       PRES   REMARKS
REEDSBURG      CLOUDY    49  46  89 NE8       30.13R
BARABOO/DELLS  CLOUDY    48  44  84 NE9       30.12S
LONE ROCK      CLOUDY    54  52  93 E14       30.09R
MINERAL POINT  CLOUDY    54  54 100 NE17G23   30.07R
MADISON        CLOUDY    50  47  89 E9        30.10R
MIDDLETON      CLOUDY    52  49  89 E12       30.10S
WATERTOWN      CLOUDY    47  47 100 NE9       30.11S
MONROE         CLOUDY    50  46  87 NE13G25   30.08R
JANESVILLE     CLOUDY    50  43  76 NE10      30.10R
$$

WIZ051-052-058>065-066-070>072-201100-
SOUTHEAST WISCONSIN

CITY           SKY/WX    TMP DP  RH WIND       PRES   REMARKS
MILWAUKEE      CLOUDY    44  40  85 N17G24    30.13S
WAUKESHA       DRIZZLE   43  39  87 NE13      30.12F
MILWAUKEE/TIMM RAIN      43  37  81 NE13      30.13F
RACINE         CLOUDY    43  40  89 N17G30    30.14R
BURLINGTON     LGT RAIN  46  40  81 NE16G22   30.09F
KENOSHA        CLOUDY    44  40  85 NE14G23   30.12R
FOND DU LAC    LGT RAIN  47  44  90 NE12      30.15R
SHEBOYGAN      LGT RAIN  45  42  89 N10       30.15R
WEST BEND      DRIZZLE   45  43  93 NE6       30.14R
JUNEAU         CLOUDY    47  45  92 NE8       30.15R
$$

LSZ147-162-201100-
LAKE SUPERIOR

STATION/POSITION TIME  TEMP    WIND        PRES    WAVE
                       AIR SEA DIR/SP/G            HT/PER
                 (UTC) (F)     (DEG/KT/KT) (MB)    (FT/S)
W MID LAKE BUOY  0950   37 36  290/  6/  6 1024.9R   1/ 4
DEVILS ISLAND    1000   39     260/  5/  5 1025.4F
SAXON HARBOR     0940   32     210/  3/  4 1023.7S
$$

LMZ867-665-643>646-201100-
LAKE MICHIGAN

STATION/POSITION TIME  TEMP    WIND        PRES    WAVE
                       AIR SEA DIR/SP/G            HT/PER
                 (UTC) (F)     (DEG/KT/KT) (MB)    (FT/S)
NORTHPORT PIER   0940   42                 1021.3F
KEWAUNEE LAKESHO 0954   42     350/  8/ 11 1020.6R
SHEBOYGAN LAKESH 1000   42      30/ 17/ 19 1021.2R
PORT WASHINGTON  0940   46      30/ 12/ 15 1021.7R
MILWAUKEE LAKESH 1000   43      30/ 19/ 21   N/A
KENOSHA   LAKESH 1000   44                 1019.6
$$

TC  - TEMPERATURE IN CELSIUS
VSB - VISIBILITY IN STATUTE MILES
WCI - WIND CHILL INDEX
HX  - HEAT INDEX




USA.gov is the U.S. government's official web portal to all federal, state and local government web resources and services.